map of KIX home
KIX - Airport
Location
City:  Osaka, Osaka, Japan
Name:Kansai International Airport
ICAO:RJBB
IATA:KIX

Details
Type:Airport (Aerodrome, Airfield)
Use:Public/Civil, International (customs port of entry)
Latitude:3425'38"N (34.427306)
Longitude:13514'39"E (135.244072)
Datum:WGS 1984
Elevation:26 ft (8 m)
Variation:7.64W (WMM2015 magnetic declination)
-0.07 annual change
Runways:1
Longest:11483 × 200 ft (3500 × 61 m), paved

Time
Time Zone:UTC+9
Local Time:

Weather
METAR:RJBB 182100Z 33011KT 9999 -SHRA FEW015 SCT030 BKN040 15/09 Q1016 NOSIG
TAF:RJBB 181706Z 1818/2000 30008KT 9999 FEW008 SCT020 BKN030
TEMPO 1820/1823 4000 SHRA BR
BECMG 1821/1823 35015KT

Related Locations
Nearby:
Farthest:SSMT: 12015 mi / 19336 km
Mostardas, RS, BR

Find:

   beyond  
but within

Other Information
Maps:
NOTAMs:
Links:
Sources:

  
  • flag of Japan
  • flag of Osaka
  • flag of Osaka
  

Sectional Chart

Flight Planning
at skyvector.com

Satellite Image

Google Maps Satellite view

 

Copyright © 2004-2018 Karl L. Swartz. All rights reserved.
The Great Circle Mapper name and logo are trademarks of the Great Circle Mapper.
All other trademarks mentioned herein belong to their respective owners.
Please see credits for attibutions and further copyright information.

  Follow gcmap on Facebook Follow gcmap on Twitter Follow gcmap on Google+ GCmap on LinkedIn

hCard Microformat

Geo Microformat